{"data":{"norad_id":64009,"intl_designator":"2025-101R","name":"STARLINK-34077","alt_names":[],"object_type":"PAYLOAD","status":"ACTIVE","operator":null,"country":"US","launch_date":"2025-05-14","launch_site_code":"AFETR","launch_vehicle":null,"mission":null,"orbit_class":"UNKNOWN","rcs_meters":null,"size_class":null,"mass_kg":null,"dimensions":null,"purposes":["comms"],"wikipedia_slug":null,"has_3d_model":false,"image_url":null,"decayed_at":null,"tle_current":{"epoch":"2026-05-24T10:39:20.152800Z","epoch_age_seconds":122763,"freshness":"FRESH","line1":"1 64009U 25101R   26144.44398325  .00030928  00000+0  11279-2 0  9996","line2":"2 64009  42.9991 289.8987 0001386 271.7145  88.3548 15.27605509 58640","mean_motion":15.27605509,"eccentricity":0.0001386,"inclination_deg":42.9991,"raan_deg":289.8987,"arg_perigee_deg":271.7145,"mean_anomaly_deg":88.3548,"bstar":0.0011279,"rev_number":5864,"period_min":94.265174583106,"perigee_km":482.0217641734,"apogee_km":483.92366378611,"semimajor_km":6861.1097139798,"source":"CELESTRAK","updated_at":"2026-05-25T13:38:20.220830Z"}}}